User: anonymous   Login
Location: Kimberly
(42.5380°N, 114.3640°W)
Time: 20:35:15
(UTC-07:00)
Language:

N. Korean satellite - Orbit

View from above orbital plane
View from above orbital plane
View from above satellite
View from above satellite

Ground track
Ground track

The orbit data is extracted from the following two-line orbital elements,

1 39026U 12072A   19019.06854202  .00001048  00000-0  41087-4 0  9996
2 39026  97.2098  27.1562 0036795 277.0184  82.6871 15.27385401338607
Epoch (UTC): 19 January 2019 01:38:42
Eccentricity: 0.0036795
inclination: 97.2098°
perigee height: 458 km
apogee height: 509 km
right ascension of ascending node: 27.1562°
argument of perigee: 277.0184°
revolutions per day: 15.27385401
mean anomaly at epoch: 82.6871°
orbit number at epoch: 33860

The dashed part of the orbit path shows where the satellite is in the earth's shadow,  

DLR